St. Thomas, VI

3:17 PM AST on July 28, 2017 (GMT -0400)
King

Weather History for TIST - November, 2013

Change the Weather History Date:

Monday, November 25, 2013

  Actual Average Record
Temperature  
Mean Temperature 81 °F 81 °F  
Max Temperature 86 °F 87 °F 95 °F (1995)
Min Temperature 75 °F 75 °F 61 °F (1999)
Degree Days  
Heating Degree Days 0 0  
Month to date heating degree days 0 0  
Since 1 July heating degree days 0 0  
Cooling Degree Days 16 16  
Month to date cooling degree days 409 408  
Year to date cooling degree days 5468 5519  
Growing Degree Days 30 (Base 50)    
Moisture  
Dew Point 74 °F    
Average Humidity 78    
Maximum Humidity 91    
Minimum Humidity 65    
Precipitation  
Precipitation 0.10 in 0.14 in 2.07 in (1987)
Month to date precipitation 6.94 4.60  
Year to date precipitation 43.65 35.75  
Sea Level Pressure  
Sea Level Pressure 29.98 in    
Wind  
Wind Speed 10 mph (East)    
Max Wind Speed 21 mph    
Max Gust Speed 28 mph    
Visibility 10 miles    
Events      
T = Trace of Precipitation, MM = Missing Value Source: NWS Daily Summary

Daily Weather History Graph

Daily Weather History Graph

Search for Another Location

Airport or City:

Trip Planner

Search our weather history database for the weather conditions in past years. The results will help you decide how hot, cold, wet, or windy it might be!

Date:

Astronomy

Nov. 25, 2013 Rise Set
Actual Time 6:32 AM AST 5:41 PM AST
Civil Twilight 6:08 AM AST 6:05 PM AST
Nautical Twilight 5:42 AM AST 6:31 PM AST
Astronomical Twilight 5:15 AM AST 6:58 PM AST
Moon No Moon Rise 12:18 PM AST (11/25)
Length of Visible Light 11h 56m
Length of Day
11h 09m
Waning Gibbous, 51% of the Moon is Illuminated
Nov 25
Waning Gibbous
Nov 25
Last Quarter
Dec 2
New
Dec 9
First Quarter
Dec 17
Full

Hourly Weather History & Observations

Time (AST) Temp. Heat Index Dew Point Humidity Pressure Visibility Wind Dir Wind Speed Gust Speed Precip Events Conditions
12:53 AM 78.1 °F - 75.0 °F 90% 29.96 in 10.0 mi East 8.1 mph - N/A   Clear
1:53 AM 79.0 °F - 75.0 °F 88% 29.95 in 10.0 mi East 6.9 mph - N/A   Clear
2:53 AM 78.1 °F - 75.0 °F 90% 29.94 in 10.0 mi East 3.5 mph - N/A   Clear
3:53 AM 79.0 °F - 75.0 °F 88% 29.93 in 10.0 mi East 3.5 mph - N/A   Clear
4:53 AM 78.1 °F - 75.0 °F 90% 29.94 in 10.0 mi East 4.6 mph - N/A   Clear
5:53 AM 78.1 °F - 75.9 °F 93% 29.95 in 10.0 mi Calm Calm - N/A   Clear
6:53 AM 79.0 °F - 75.9 °F 90% 29.97 in 10.0 mi ESE 8.1 mph - N/A   Partly Cloudy
7:53 AM 75.9 °F - 72.0 °F 87% 30.00 in 10.0 mi East 9.2 mph - 0.01 in   Partly Cloudy
8:53 AM 80.1 °F 84.5 °F 73.9 °F 81% 30.01 in 10.0 mi East 12.7 mph - N/A   Clear
9:53 AM 82.0 °F 87.4 °F 73.0 °F 74% 30.01 in 10.0 mi East 15.0 mph - 0.00 in   Clear
10:53 AM 82.9 °F 89.4 °F 73.9 °F 74% 30.02 in 10.0 mi East 19.6 mph 27.6 mph N/A   Clear
11:53 AM 84.9 °F 93.3 °F 75.0 °F 72% 30.00 in 10.0 mi East 13.8 mph - N/A   Partly Cloudy
12:53 PM 84.9 °F 90.7 °F 72.0 °F 65% 29.98 in 10.0 mi ESE 13.8 mph 23.0 mph N/A   Partly Cloudy
1:53 PM 84.0 °F 90.2 °F 73.0 °F 69% 29.95 in 10.0 mi SE 16.1 mph - N/A   Clear
2:53 PM 84.9 °F 90.7 °F 72.0 °F 65% 29.95 in 10.0 mi ESE 12.7 mph - N/A   Clear
3:53 PM 84.0 °F 89.6 °F 72.0 °F 67% 29.95 in 10.0 mi East 15.0 mph - N/A   Clear
4:53 PM 82.9 °F 88.8 °F 73.0 °F 72% 29.96 in 10.0 mi East 13.8 mph - N/A   Clear
5:53 PM 81.0 °F 86.2 °F 73.9 °F 79% 29.97 in 10.0 mi East 6.9 mph - N/A   Clear
6:53 PM 81.0 °F 85.8 °F 73.0 °F 77% 29.99 in 10.0 mi East 9.2 mph - N/A   Clear
7:53 PM 80.1 °F 84.5 °F 73.9 °F 81% 30.01 in 10.0 mi East 9.2 mph - N/A   Clear
8:53 PM 80.1 °F 84.2 °F 73.0 °F 79% 30.01 in 10.0 mi East 8.1 mph - N/A   Clear
9:53 PM 80.1 °F 84.2 °F 73.0 °F 79% 30.01 in 10.0 mi East 6.9 mph - N/A   Clear
10:53 PM 79.0 °F - 75.0 °F 88% 30.01 in 10.0 mi East 8.1 mph - 0.09 in   Clear
11:53 PM 79.0 °F - 75.0 °F 88% 30.00 in 10.0 mi East 8.1 mph - N/A   Clear